header image
aktuelles Wetter

 Wetter METAR LOWG 190420Z AUTO 30002KT 9000 FEW110 BKN130 01/00 Q1022 R17/CLRD//=

Willkommen arrow GSV Category 1 arrow Natur puuuur genießen
Natur puuuur genießen

 fl_dg.jpg - 16.97 Kb 

Fliegen, Relaxen, Wohlfühlen. Mit dem Segelflieger abheben und Natur pur genießen. Lautlos über das Land gleiten. Mit unseren modernen Segelflugzeugen ist dieses Erlebnis garantiert. 

 

<Previous   Next>
GSV-NEWSFLASH
Anfliegen2018

Unser Anfliegen am Sonntag dem 8.4.2018 fand bei herrlichem Frühlingswetter in LOKW statt.

Read more...
Privatpilotenausbildung in Graz

Surprised PPL-Kurse beginnen bei uns laufend! Nähere Informationen bei Stefan Berger-Goriupp Tel. 0664/3280296

geänderte Sprechfunkverfahren
Die ACG hat einige Anpassungen an der Phrasologie durchgeführt ...
Read more...
Bilder
FX102958.JPG
Wer ist Online
No Users Online